User: anonymous   Login
Location: Unspecified
(0.0000°N, 0.0000°E)
Time: 21:28:58
(UTC+00:00)
Language:

HYPSO-2 - Orbit

View from above orbital plane
View from above orbital plane
View from above satellite
View from above satellite

Ground track
Ground track

The orbit is defined by the following mean orbital elements,

1 60531U          26145.16699758 +.00000000 +00000-0 +24896-3 0 00009
2 60531  97.6839 221.7631 0002945  85.9605 274.1954 14.98667501    03
Epoch (UTC): 25 May 2026 04:00:28
Eccentricity: 0.0002945
inclination: 97.6839°
perigee height: 569 km
apogee height: 573 km
right ascension of ascending node: 221.7631°
argument of perigee: 85.9605°
revolutions per day: 14.98667501
mean anomaly at epoch: 274.1954°

The dashed part of the orbit path shows where the satellite is in the earth's shadow,  

DLR